星链-5018 (STARLINK-5018 )

导读 | 豆包AI

STARLINK-5018是美国SpaceX公司星链星座中的一颗卫星,于2022年9月24日发射升空,属于星链互联网卫星系列。星链项目旨在构建全球卫星互联网星座,为全球偏远、欠发达地区等提供高速低延迟的宽带互联网服务,该卫星承担着星座扩容、补充全球网络覆盖的任务,推动全球互联覆盖范围进一步拓展。

基本信息
目录编号:
53929
目录名称:
STARLINK-5018
国际标识:
2022-119AV
轨道中心:
EARTH
卫星名称:
星链-5018
卫星全名:
星链-5018 (STARLINK-5018 )
卫星状态:
在轨 (已飞行1314 天)
发射日期:
2022-09-24 UTC
国别 :
美国 (US)
星等 :
--
轨道信息
数据来源 国际轨道数据 AOE轨道数据
星历时间 2026-04-30T12:28:36+0800
12小时前
查看轨道信息
2026-04-24T01:00:00+0800
6天前
查看轨道信息
半长轴 6917.836km 6917.861km
偏心率 0.0001282 0.0001472
轨道倾角 53.217° 53.215°
近地点辐角 91.323° 70.926°
升交点赤经 83.317° 112.401°
平近点角 268.790° 1.686°
近地点 538.812km 538.705km
远地点 540.586km 540.743km
周期 95.437分钟 95.437分钟
每日圈数 15.088546 15.088464
详细信息
固有亮度:
5
最大亮度:
2.5
卫星平台:
Starlink v1.5
覆盖范围:
全球
运营商:
太空探索技术公司
运营商所在国:
美国
制造商(研发单位):
太空探索技术公司
制造商所在国:
美国
使用方式:
暂无
卫星简介
星链(Starlink)计划是由太空探索技术公司(SpaceX)提出的一个巨型低轨卫星互联网星座项目,计划在2019年至2024年间在太空搭建由约1.2万颗卫星组成的“星链”网络,其中1584颗将部署在地球上空550千米处的近地轨道,并从2020年开始工作。该卫星仍在工作。
2D轨道图
3D轨道图
轨道高度分析图
轨道倾角分析图
轨道综合分析图
查看轨道综合分析图